FW2418 Weather Reports


time (UTC)temp
F
wind
direction
speed
knots
gust
knots
rain 1hr
in
rain 24hr
in
rain mn
in
humidity
%
barometer
mb
20260510120045 74 124 0.0 0.0 0.00 0.22 0.01 100 1012.9
20260510115044 73 124 0.0 0.0 0.00 0.22 0.01 100 1012.9
20260510114011 73 124 0.0 0.0 0.01 0.22 0.01 100 1012.6
20260510113011 72 124 0.0 0.0 0.01 0.22 0.01 100 1012.3
20260510112010 72 124 0.0 0.0 0.01 0.22 0.01 99 1012.3
20260510111009 72 124 0.0 0.0 0.01 0.22 0.01 99 1012.3
20260510110008 72 124 0.0 0.0 0.01 0.22 0.01 99 1012.3
20260510104936 72 124 0.0 0.0 0.01 0.22 0.01 99 1012.0
20260510103935 72 124 0.0 0.0 0.00 0.21 0.00 99 1011.6
20260510102934 72 124 0.0 0.0 0.00 0.21 0.00 99 1011.6
20260510101933 72 124 0.0 0.0 0.00 0.21 0.00 99 1011.6
20260510100932 72 124 0.0 0.0 0.00 0.21 0.00 99 1011.3
20260510095931 72 124 0.0 0.0 0.00 0.21 0.00 99 1011.3
20260510094931 72 124 0.0 0.0 0.00 0.21 0.00 99 1011.3
20260510093930 72 124 0.0 0.0 0.00 0.21 0.00 100 1010.9
20260510092929 72 124 0.0 0.0 0.00 0.21 0.00 100 1010.9
20260510091928 72 124 0.0 0.0 0.00 0.21 0.00 100 1010.9
20260510090927 72 124 0.0 0.0 0.00 0.21 0.00 99 1010.9
20260510085926 72 124 0.0 0.9 0.00 0.21 0.00 99 1010.6
20260510084925 71 99 0.0 0.9 0.00 0.21 0.00 99 1010.6
20260510083924 71 99 0.0 0.0 0.00 0.21 0.00 99 1011.0
20260510082923 71 99 0.0 0.0 0.00 0.21 0.00 99 1011.0
20260510081851 71 99 0.0 0.0 0.00 0.21 0.00 99 1011.0
20260510080850 71 98 0.0 0.0 0.00 0.21 0.00 99 1011.0
20260510075849 71 99 0.0 0.0 0.00 0.21 0.00 99 1011.0
20260510074848 70 99 0.0 0.0 0.00 0.21 0.00 99 1011.0
20260510073847 70 98 0.0 0.0 0.00 0.21 0.00 99 1011.0
20260510072846 70 99 0.0 0.0 0.00 0.21 0.00 99 1011.3
20260510071845 70 98 0.0 0.0 0.00 0.21 0.00 99 1011.3
20260510070844 70 98 0.0 0.0 0.00 0.21 0.00 99 1011.3
20260510065843 71 99 0.0 0.0 0.00 0.21 0.00 99 1011.3
20260510064842 71 98 0.0 0.0 0.00 0.21 0.00 99 1011.3
20260510063841 71 98 0.0 0.0 0.00 0.21 0.00 99 1011.3
20260510062840 71 98 0.0 0.0 0.00 0.21 0.00 99 1011.7
20260510061839 71 98 0.0 0.0 0.00 0.21 0.00 99 1011.7
20260510060838 71 98 0.0 0.0 0.00 0.21 0.00 99 1011.7
20260510055836 71 98 0.0 0.0 0.00 0.21 0.00 99 1011.7
20260510054836 71 98 0.0 0.0 0.00 0.21 0.00 99 1012.0
20260510053835 71 99 0.0 0.0 0.00 0.21 0.00 99 1012.0
20260510052833 71 98 0.0 0.0 0.00 0.21 0.00 99 1012.3
20260510051832 71 99 0.0 0.9 0.00 0.21 0.00 99 1012.3
20260510050832 71 99 0.0 0.9 0.00 0.21 0.00 99 1012.3
20260510045831 71 99 0.0 0.0 0.00 0.21 0.00 98 1012.7
20260510044830 71 99 0.0 0.0 0.00 0.21 0.00 98 1012.7
20260510043829 71 99 0.0 0.0 0.00 0.21 0.00 98 1012.7
20260510042829 72 99 0.0 0.0 0.00 0.21 0.00 98 1012.7
20260510041828 72 99 0.0 0.0 0.00 0.21 0.00 98 1012.7
20260510040827 72 99 0.0 0.0 0.00 0.21 0.00 98 1012.7
20260510035826 72 99 0.0 0.0 0.00 0.21 0.21 98 1012.7
20260510034825 72 98 0.0 0.0 0.00 0.21 0.21 98 1012.7
20260510033824 72 98 0.0 0.0 0.00 0.21 0.21 98 1012.3
20260510032823 72 98 0.0 0.0 0.00 0.21 0.21 98 1012.3
20260510031822 72 98 0.0 0.0 0.00 0.21 0.21 98 1012.3
20260510030750 73 98 0.0 0.0 0.00 0.21 0.21 99 1012.3
20260510025717 73 98 0.0 0.0 0.00 0.21 0.21 99 1012.3
20260510024716 73 77 0.0 0.0 0.00 0.21 0.21 99 1012.3
20260510023715 73 77 0.0 0.0 0.00 0.21 0.21 99 1012.3
20260510022643 73 77 0.0 0.0 0.00 0.21 0.21 99 1012.3
20260510021642 73 78 0.0 0.0 0.00 0.21 0.21 99 1012.3
20260510020641 73 77 0.0 0.9 0.00 0.21 0.21 99 1012.3
20260510015641 73 58 0.0 0.0 0.00 0.21 0.21 99 1012.3
20260510014609 73 336 0.0 0.0 0.00 0.21 0.21 99 1012.3
20260510013537 73 336 0.0 0.0 0.00 0.21 0.21 99 1012.0
20260510012536 73 336 0.0 0.0 0.00 0.22 0.21 99 1012.0
20260510011504 73 336 0.0 0.0 0.00 0.30 0.21 99 1012.0
20260510010506 73 335 0.0 0.9 0.00 0.42 0.21 98 1011.6
20260510004717 73 336 0.9 0.9 0.00 0.45 0.21 98 1011.6
20260510003716 74 333 0.9 0.9 0.00 0.45 0.21 98 1011.3
20260510002644 74 285 0.9 0.9 0.00 0.58 0.21 98 1010.9
20260510001644 74 283 0.9 0.9 0.00 1.01 0.21 98 1011.3
20260510000643 74 284 0.0 0.9 0.00 1.01 0.21 98 1010.9
20260509235642 74 29 0.9 0.9 0.00 1.01 0.21 97 1010.6
20260509234641 74 32 0.9 0.9 0.00 1.01 0.21 97 1010.9
20260509233640 74 354 0.9 2.6 0.00 1.01 0.21 97 1010.6
20260509232639 75 70 1.7 2.6 0.00 1.01 0.21 97 1010.6
20260509231639 75 46 0.9 2.6 0.00 1.01 0.21 97 1010.3
20260509230638 75 22 0.9 4.3 0.00 1.01 0.21 97 1010.3
20260509225637 75 29 0.9 5.2 0.00 1.01 0.21 97 1010.3
20260509224636 75 26 1.7 6.1 0.00 1.01 0.21 97 1009.9
20260509223635 76 31 1.7 5.2 0.00 1.01 0.21 97 1009.9
20260509222634 76 32 1.7 6.1 0.00 1.01 0.21 96 1009.9
20260509221531 76 27 1.7 7.0 0.00 1.01 0.21 97 1009.9
20260509220459 76 18 1.7 7.0 0.04 1.01 0.21 97 1009.9
20260509215427 76 53 0.9 4.3 0.12 1.01 0.21 97 1009.6
20260509214426 75 66 0.9 4.3 0.21 1.01 0.21 97 1009.6
20260509213354 76 25 1.7 5.2 0.21 1.01 0.21 96 1009.6
20260509212321 76 17 0.9 3.5 0.21 1.01 0.21 96 1009.6
20260509211321 76 25 1.7 2.6 0.21 1.01 0.21 95 1009.6
20260509210320 77 338 0.0 6.1 0.17 0.97 0.17 92 1010.3
20260509205248 81 310 1.7 7.0 0.05 0.85 0.05 86 1009.9
20260509204247 86 315 1.7 6.1 0.00 0.80 0.00 68 1009.3
20260509203246 89 312 1.7 7.0 0.00 0.80 0.00 61 1008.6
20260509202245 91 316 0.9 1.7 0.00 0.80 0.00 56 1008.6
20260509201244 91 308 0.9 1.7 0.00 0.80 0.00 56 1008.6
20260509200243 91 274 0.9 2.6 0.00 0.80 0.00 56 1008.6
20260509195140 91 297 0.9 3.5 0.00 0.80 0.00 56 1008.6
20260509194139 91 256 0.9 6.1 0.00 0.80 0.00 55 1008.9
20260509193138 91 298 1.7 6.1 0.00 0.80 0.00 55 1008.6
20260509192137 91 302 0.9 3.5 0.00 0.80 0.00 55 1008.9
20260509191136 92 305 1.7 3.5 0.00 0.80 0.00 53 1008.9
20260509190135 92 271 0.9 3.5 0.00 0.80 0.00 53 1009.3
20260509185134 91 279 1.7 4.3 0.00 0.80 0.00 54 1009.3
20260509184133 92 271 1.7 5.2 0.00 0.80 0.00 53 1009.6
20260509183132 92 224 1.7 5.2 0.00 0.80 0.00 53 1009.6
20260509182131 91 276 1.7 4.3 0.00 0.80 0.00 54 1010.0
20260509181131 91 271 1.7 4.3 0.00 0.80 0.00 55 1010.0
20260509180130 92 281 1.7 6.1 0.00 0.80 0.00 55 1010.0
20260509175129 91 182 2.6 6.1 0.00 0.80 0.00 56 1010.0
20260509174128 91 248 1.7 4.3 0.00 0.80 0.00 56 1010.3
20260509173127 91 307 0.9 4.3 0.00 0.80 0.00 57 1010.3
20260509172055 91 275 2.6 7.0 0.00 0.80 0.00 57 1010.0
20260509171054 92 220 0.9 7.0 0.00 0.80 0.00 57 1010.0
20260509170053 90 200 0.9 3.5 0.00 0.80 0.00 60 1010.3
20260509165052 90 193 1.7 3.5 0.00 0.80 0.00 60 1010.3
20260509164051 90 281 0.9 3.5 0.00 0.80 0.00 60 1010.3
20260509163050 90 243 0.9 5.2 0.00 0.80 0.00 62 1010.6
20260509162049 90 271 0.9 6.1 0.00 0.80 0.00 64 1010.6
20260509161048 89 173 1.7 6.1 0.00 0.80 0.00 64 1010.6
20260509160047 88 248 0.9 6.1 0.00 0.80 0.00 65 1010.6
20260509155046 88 221 0.9 6.1 0.00 0.80 0.00 65 1010.6
20260509154045 88 250 0.9 7.0 0.00 0.80 0.00 66 1011.0
20260509153044 88 206 1.7 6.1 0.00 0.80 0.00 67 1011.0
20260509152043 86 224 1.7 6.1 0.00 0.80 0.00 69 1011.0
20260509151042 85 247 0.9 4.3 0.00 0.80 0.00 75 1011.3
20260509145939 83 181 1.7 5.2 0.00 0.80 0.00 85 1011.3
20260509144907 80 180 0.9 5.2 0.00 0.80 0.00 95 1011.3
20260509143906 79 123 1.7 5.2 0.00 0.80 0.00 96 1011.3
20260509142905 78 159 1.7 5.2 0.00 0.80 0.00 96 1011.3
20260509141904 78 203 0.9 4.3 0.00 0.80 0.00 96 1011.0
20260509140832 78 159 1.7 4.3 0.00 0.80 0.00 97 1011.0
20260509135831 77 173 2.6 4.3 0.00 0.80 0.00 97 1010.9
20260509134830 77 188 1.7 4.3 0.00 0.80 0.00 97 1010.9
20260509133829 77 126 0.9 3.5 0.00 0.80 0.00 98 1010.6
20260509132828 77 162 1.7 2.6 0.00 0.80 0.00 98 1010.9
20260509131827 76 101 1.7 2.6 0.00 0.80 0.00 98 1010.9
20260509130826 76 146 0.9 0.9 0.00 0.80 0.00 99 1010.9
20260509125825 75 121 0.0 1.7 0.00 0.80 0.00 99 1010.9
20260509124824 75 113 0.9 2.6 0.00 0.80 0.00 99 1010.9
20260509123823 74 205 0.0 2.6 0.00 0.80 0.00 100 1010.9
20260509122751 74 18 0.0 0.9 0.00 0.80 0.00 100 1010.9
20260509121750 74 115 0.9 0.9 0.00 0.80 0.00 100 1010.9